GEFSGL_prec_meanprecacc_090.txt.gz
Total_Precipitation_Accumulation
1.22 1.18 1.06 0.86 0.75 0.76 0.77 0.73 0.68 0.71 0.66 0.68 0.66 0.70 0.81 0.80 0.79 0.88 0.93 0.95 1.01 1.10 1.15 1.16 1.30 1.45 1.55 1.60 1.62 1.59 1.56 1.45 1.22 1.06 0.82 0.65 0.65 0.65 0.70 0.61 0.66 0.71 0.63
0.93 0.84 0.72 0.57 0.51 0.56 0.57 0.52 0.44 0.47 0.44 0.51 0.55 0.54 0.70 0.86 0.87 0.90 0.91 0.86 0.87 0.90 0.95 1.02 1.12 1.18 1.27 1.42 1.53 1.52 1.55 1.55 1.38 1.23 1.03 0.84 0.75 0.72 0.81 0.82 0.80 0.77 0.75
0.87 0.72 0.64 0.57 0.54 0.53 0.47 0.40 0.32 0.31 0.33 0.38 0.51 0.50 0.54 0.71 0.83 0.82 0.78 0.76 0.78 0.79 0.83 0.88 0.95 1.04 1.15 1.19 1.29 1.38 1.44 1.45 1.45 1.33 1.24 1.13 0.97 0.85 0.86 0.85 0.90 1.01 0.98
1.05 0.84 0.72 0.66 0.56 0.47 0.37 0.34 0.29 0.32 0.36 0.35 0.35 0.37 0.43 0.53 0.65 0.66 0.64 0.64 0.63 0.67 0.78 0.86 0.92 0.96 1.01 1.08 1.12 1.23 1.34 1.40 1.37 1.29 1.24 1.20 1.11 1.06 1.02 0.98 1.04 1.15 1.19
0.73 0.54 0.46 0.44 0.39 0.31 0.25 0.23 0.22 0.22 0.22 0.24 0.21 0.22 0.27 0.34 0.39 0.40 0.47 0.52 0.58 0.63 0.73 0.78 0.82 0.78 0.82 0.89 0.88 1.02 1.17 1.30 1.32 1.33 1.25 1.17 1.11 1.08 1.04 1.02 1.08 1.24 1.31
0.35 0.29 0.25 0.21 0.18 0.16 0.15 0.15 0.11 0.09 0.09 0.14 0.14 0.16 0.20 0.22 0.26 0.24 0.29 0.42 0.53 0.59 0.66 0.71 0.78 0.80 0.76 0.71 0.71 0.78 0.89 0.99 1.10 1.19 1.21 1.14 1.09 1.07 1.12 1.18 1.17 1.23 1.37
0.08 0.07 0.06 0.07 0.07 0.06 0.06 0.07 0.07 0.06 0.06 0.08 0.08 0.13 0.17 0.13 0.15 0.14 0.24 0.45 0.51 0.53 0.52 0.64 0.76 0.83 0.85 0.87 0.76 0.74 0.76 0.78 0.82 0.96 1.05 1.05 1.05 1.07 1.08 1.15 1.21 1.23 1.15
0.01 0.01 0.01 0.02 0.03 0.04 0.05 0.05 0.03 0.02 0.03 0.07 0.08 0.14 0.14 0.09 0.10 0.13 0.19 0.36 0.45 0.43 0.45 0.55 0.71 0.82 0.86 0.87 0.82 0.88 0.86 0.76 0.71 0.77 0.93 0.99 0.98 1.09 1.17 1.24 1.32 1.29 1.26
0.00 0.00 0.00 0.00 0.01 0.02 0.02 0.02 0.01 0.01 0.02 0.05 0.09 0.10 0.07 0.04 0.06 0.10 0.18 0.35 0.44 0.44 0.41 0.49 0.65 0.75 0.84 0.85 0.82 0.92 0.93 0.76 0.67 0.75 0.77 0.83 0.91 1.01 1.16 1.24 1.29 1.26 1.26
0.00 0.00 0.00 0.00 0.00 0.01 0.01 0.01 0.01 0.01 0.01 0.02 0.04 0.06 0.05 0.06 0.05 0.05 0.12 0.23 0.32 0.40 0.41 0.46 0.66 0.72 0.75 0.71 0.73 0.94 1.04 0.91 0.67 0.63 0.70 0.80 0.86 0.99 1.19 1.30 1.44 1.37 1.19
0.00 0.00 0.00 0.00 0.00 0.02 0.03 0.02 0.01 0.01 0.01 0.01 0.02 0.03 0.03 0.03 0.05 0.05 0.10 0.12 0.16 0.22 0.28 0.33 0.37 0.49 0.52 0.56 0.67 0.78 0.88 0.79 0.70 0.78 0.87 0.91 0.97 1.01 1.08 1.18 1.36 1.44 1.30
0.00 0.00 0.00 0.01 0.01 0.02 0.05 0.04 0.02 0.01 0.01 0.01 0.02 0.03 0.03 0.03 0.03 0.03 0.06 0.07 0.09 0.14 0.18 0.23 0.27 0.36 0.41 0.47 0.54 0.59 0.62 0.68 0.73 0.86 0.89 0.82 0.86 0.92 0.92 0.99 1.12 1.21 1.07
0.00 0.00 0.00 0.00 0.01 0.02 0.02 0.02 0.02 0.01 0.01 0.01 0.02 0.03 0.04 0.05 0.03 0.03 0.03 0.04 0.05 0.07 0.11 0.17 0.21 0.29 0.30 0.36 0.44 0.44 0.53 0.75 0.86 0.80 0.78 0.75 0.74 0.77 0.75 0.85 1.02 1.13 1.06
0.00 0.00 0.00 0.00 0.01 0.02 0.01 0.01 0.01 0.01 0.01 0.02 0.02 0.03 0.04 0.07 0.03 0.01 0.03 0.05 0.07 0.09 0.11 0.15 0.19 0.27 0.30 0.33 0.38 0.46 0.57 0.72 0.85 0.71 0.59 0.62 0.63 0.70 0.76 0.74 0.82 0.89 1.01
0.00 0.00 0.00 0.00 0.01 0.02 0.01 0.00 0.00 0.00 0.00 0.01 0.01 0.03 0.02 0.02 0.01 0.01 0.02 0.04 0.08 0.08 0.12 0.21 0.32 0.43 0.43 0.44 0.50 0.54 0.57 0.56 0.60 0.54 0.54 0.59 0.62 0.63 0.69 0.71 0.71 0.69 0.71
0.00 0.00 0.00 0.00 0.01 0.01 0.02 0.01 0.00 0.00 0.01 0.01 0.01 0.01 0.01 0.01 0.01 0.04 0.07 0.06 0.08 0.10 0.19 0.25 0.37 0.50 0.54 0.56 0.57 0.57 0.59 0.55 0.54 0.48 0.50 0.51 0.52 0.51 0.52 0.60 0.66 0.70 0.65
0.00 0.00 0.00 0.00 0.00 0.00 0.01 0.03 0.02 0.01 0.00 0.00 0.00 0.00 0.00 0.01 0.02 0.03 0.06 0.08 0.11 0.18 0.20 0.26 0.44 0.49 0.45 0.46 0.50 0.53 0.48 0.38 0.36 0.35 0.31 0.32 0.33 0.33 0.34 0.40 0.49 0.55 0.55
0.00 0.00 0.00 0.00 0.00 0.00 0.00 0.01 0.01 0.03 0.04 0.03 0.01 0.00 0.00 0.00 0.01 0.03 0.04 0.08 0.14 0.19 0.23 0.36 0.49 0.51 0.44 0.36 0.31 0.27 0.23 0.19 0.18 0.19 0.19 0.19 0.23 0.26 0.26 0.27 0.32 0.35 0.39
0.00 0.00 0.00 0.00 0.00 0.00 0.00 0.00 0.00 0.01 0.01 0.03 0.03 0.02 0.01 0.01 0.01 0.01 0.03 0.05 0.09 0.11 0.18 0.27 0.34 0.40 0.33 0.20 0.12 0.09 0.08 0.08 0.09 0.11 0.13 0.14 0.15 0.18 0.21 0.23 0.25 0.30 0.31
0.00 0.00 0.00 0.00 0.00 0.00 0.00 0.00 0.00 0.00 0.01 0.01 0.01 0.01 0.02 0.02 0.02 0.02 0.02 0.03 0.05 0.05 0.06 0.08 0.11 0.11 0.08 0.05 0.05 0.04 0.04 0.05 0.06 0.07 0.08 0.09 0.11 0.14 0.17 0.18 0.18 0.21 0.25
0.00 0.00 0.00 0.00 0.00 0.00 0.00 0.01 0.01 0.01 0.01 0.01 0.00 0.00 0.00 0.01 0.02 0.02 0.03 0.02 0.03 0.03 0.03 0.03 0.03 0.03 0.02 0.02 0.03 0.03 0.03 0.04 0.05 0.05 0.07 0.08 0.09 0.11 0.14 0.16 0.16 0.16 0.18
0.00 0.00 0.00 0.00 0.00 0.00 0.00 0.00 0.01 0.01 0.01 0.01 0.01 0.00 0.00 0.01 0.01 0.02 0.02 0.02 0.02 0.02 0.03 0.03 0.03 0.03 0.03 0.03 0.03 0.04 0.04 0.05 0.05 0.06 0.07 0.08 0.08 0.09 0.10 0.12 0.13 0.13 0.13
0.00 0.00 0.00 0.00 0.00 0.00 0.00 0.00 0.00 0.01 0.01 0.01 0.01 0.01 0.01 0.01 0.01 0.02 0.01 0.02 0.02 0.02 0.02 0.03 0.04 0.04 0.05 0.05 0.05 0.05 0.05 0.05 0.06 0.08 0.10 0.09 0.09 0.09 0.09 0.09 0.10 0.11 0.11
0.00 0.00 0.00 0.00 0.00 0.00 0.00 0.00 0.00 0.00 0.00 0.01 0.01 0.01 0.01 0.01 0.01 0.01 0.01 0.01 0.01 0.01 0.02 0.02 0.03 0.04 0.04 0.05 0.06 0.06 0.06 0.06 0.06 0.07 0.09 0.12 0.11 0.10 0.09 0.09 0.10 0.11 0.11
0.00 0.00 0.00 0.00 0.00 0.00 0.00 0.00 0.00 0.00 0.00 0.00 0.01 0.01 0.01 0.01 0.01 0.01 0.01 0.00 0.01 0.01 0.01 0.02 0.02 0.03 0.03 0.04 0.06 0.07 0.10 0.09 0.07 0.07 0.08 0.11 0.13 0.13 0.12 0.11 0.11 0.12 0.13
0.00 0.00 0.00 0.00 0.00 0.00 0.00 0.00 0.00 0.00 0.00 0.01 0.01 0.01 0.01 0.01 0.01 0.01 0.00 0.00 0.00 0.01 0.01 0.02 0.02 0.02 0.03 0.04 0.05 0.08 0.09 0.08 0.07 0.08 0.08 0.10 0.13 0.14 0.16 0.15 0.13 0.13 0.13

GEFSGL_prec_meanprecacc_096.txt.gz
Total_Precipitation_Accumulation
1.22 1.18 1.06 0.86 0.75 0.76 0.77 0.73 0.68 0.71 0.66 0.68 0.66 0.70 0.81 0.80 0.80 0.88 0.93 0.95 1.02 1.11 1.16 1.17 1.31 1.47 1.57 1.62 1.62 1.60 1.57 1.45 1.23 1.07 0.85 0.69 0.70 0.70 0.73 0.63 0.68 0.73 0.66
0.93 0.84 0.72 0.57 0.51 0.56 0.57 0.52 0.44 0.47 0.44 0.51 0.55 0.54 0.70 0.86 0.88 0.90 0.91 0.86 0.89 0.92 0.97 1.03 1.13 1.19 1.28 1.42 1.54 1.52 1.55 1.55 1.39 1.23 1.04 0.87 0.79 0.76 0.85 0.87 0.83 0.79 0.78
0.87 0.72 0.64 0.57 0.54 0.53 0.47 0.40 0.32 0.31 0.33 0.38 0.51 0.50 0.54 0.71 0.83 0.83 0.78 0.76 0.79 0.81 0.85 0.89 0.95 1.05 1.16 1.20 1.29 1.39 1.44 1.46 1.46 1.33 1.25 1.14 0.99 0.88 0.89 0.88 0.94 1.04 1.01
1.05 0.84 0.72 0.66 0.56 0.47 0.37 0.34 0.29 0.32 0.36 0.35 0.35 0.37 0.43 0.53 0.65 0.66 0.64 0.64 0.63 0.67 0.79 0.87 0.92 0.96 1.02 1.09 1.13 1.24 1.35 1.40 1.38 1.30 1.25 1.20 1.12 1.07 1.04 1.00 1.06 1.17 1.22
0.73 0.54 0.46 0.44 0.39 0.31 0.25 0.23 0.22 0.22 0.22 0.24 0.21 0.22 0.27 0.34 0.39 0.40 0.47 0.52 0.58 0.63 0.73 0.79 0.82 0.78 0.82 0.90 0.89 1.03 1.17 1.31 1.32 1.34 1.26 1.18 1.12 1.08 1.05 1.04 1.10 1.26 1.33
0.35 0.29 0.25 0.21 0.18 0.16 0.15 0.15 0.11 0.09 0.09 0.14 0.14 0.16 0.20 0.22 0.26 0.24 0.29 0.42 0.53 0.60 0.66 0.71 0.78 0.80 0.76 0.72 0.72 0.78 0.90 0.99 1.10 1.19 1.21 1.15 1.10 1.07 1.12 1.19 1.18 1.24 1.37
0.08 0.07 0.06 0.07 0.07 0.06 0.06 0.07 0.07 0.06 0.06 0.08 0.08 0.13 0.17 0.13 0.15 0.14 0.24 0.45 0.51 0.53 0.52 0.64 0.76 0.83 0.85 0.87 0.76 0.75 0.76 0.78 0.83 0.97 1.06 1.07 1.07 1.08 1.08 1.16 1.22 1.23 1.15
0.01 0.01 0.01 0.02 0.03 0.04 0.05 0.05 0.03 0.02 0.03 0.07 0.08 0.14 0.14 0.09 0.10 0.13 0.19 0.36 0.45 0.43 0.45 0.55 0.71 0.82 0.86 0.87 0.82 0.89 0.87 0.76 0.72 0.77 0.94 1.00 1.00 1.10 1.17 1.24 1.32 1.30 1.28
0.00 0.00 0.00 0.00 0.01 0.02 0.02 0.02 0.01 0.01 0.02 0.05 0.09 0.10 0.07 0.04 0.06 0.10 0.18 0.35 0.44 0.44 0.41 0.49 0.65 0.75 0.84 0.85 0.82 0.92 0.94 0.76 0.68 0.75 0.78 0.83 0.91 1.01 1.16 1.25 1.31 1.29 1.28
0.00 0.00 0.00 0.00 0.00 0.01 0.01 0.01 0.01 0.01 0.01 0.02 0.04 0.06 0.05 0.06 0.05 0.05 0.12 0.23 0.32 0.40 0.41 0.46 0.66 0.72 0.75 0.71 0.73 0.94 1.04 0.91 0.67 0.64 0.70 0.80 0.86 0.99 1.19 1.30 1.45 1.40 1.22
0.00 0.00 0.00 0.00 0.00 0.02 0.03 0.02 0.01 0.01 0.01 0.01 0.02 0.03 0.03 0.03 0.05 0.05 0.10 0.12 0.16 0.22 0.28 0.33 0.37 0.49 0.52 0.56 0.67 0.78 0.88 0.79 0.71 0.79 0.88 0.91 0.97 1.01 1.08 1.19 1.36 1.45 1.31
0.00 0.00 0.00 0.01 0.01 0.02 0.05 0.04 0.02 0.01 0.01 0.01 0.02 0.03 0.03 0.03 0.03 0.03 0.06 0.07 0.09 0.14 0.18 0.23 0.27 0.36 0.41 0.47 0.54 0.59 0.62 0.68 0.73 0.87 0.89 0.82 0.86 0.92 0.92 0.99 1.12 1.21 1.07
0.00 0.00 0.00 0.00 0.01 0.02 0.02 0.02 0.02 0.01 0.01 0.01 0.02 0.03 0.04 0.05 0.03 0.03 0.03 0.04 0.05 0.07 0.11 0.17 0.21 0.29 0.30 0.36 0.44 0.44 0.53 0.75 0.86 0.80 0.78 0.75 0.74 0.77 0.75 0.85 1.02 1.14 1.06
0.00 0.00 0.00 0.01 0.01 0.02 0.01 0.01 0.01 0.01 0.01 0.02 0.02 0.03 0.04 0.07 0.03 0.01 0.03 0.05 0.07 0.09 0.11 0.15 0.19 0.27 0.30 0.33 0.38 0.46 0.57 0.72 0.85 0.71 0.59 0.62 0.63 0.70 0.76 0.75 0.82 0.90 1.02
0.00 0.00 0.00 0.00 0.01 0.02 0.01 0.00 0.00 0.00 0.00 0.01 0.01 0.03 0.02 0.02 0.01 0.01 0.02 0.04 0.08 0.08 0.12 0.21 0.32 0.43 0.43 0.44 0.50 0.54 0.57 0.56 0.60 0.54 0.54 0.59 0.62 0.63 0.69 0.71 0.71 0.69 0.71
0.00 0.00 0.00 0.00 0.01 0.01 0.02 0.01 0.00 0.00 0.01 0.01 0.01 0.01 0.01 0.01 0.01 0.04 0.07 0.06 0.08 0.10 0.19 0.25 0.37 0.50 0.54 0.56 0.57 0.57 0.59 0.55 0.54 0.48 0.50 0.51 0.52 0.51 0.52 0.60 0.66 0.70 0.65
0.00 0.00 0.00 0.00 0.00 0.00 0.01 0.03 0.02 0.01 0.00 0.00 0.00 0.00 0.00 0.01 0.02 0.03 0.06 0.08 0.11 0.18 0.20 0.26 0.44 0.49 0.45 0.46 0.51 0.53 0.48 0.38 0.36 0.35 0.31 0.32 0.33 0.33 0.34 0.40 0.49 0.55 0.55
0.01 0.01 0.01 0.01 0.00 0.00 0.00 0.01 0.01 0.03 0.04 0.03 0.01 0.00 0.00 0.00 0.01 0.03 0.04 0.08 0.14 0.19 0.23 0.36 0.49 0.51 0.44 0.36 0.31 0.27 0.23 0.19 0.18 0.19 0.19 0.19 0.23 0.26 0.26 0.27 0.32 0.35 0.39
0.01 0.01 0.01 0.01 0.01 0.01 0.01 0.00 0.01 0.01 0.02 0.03 0.03 0.02 0.01 0.01 0.01 0.01 0.03 0.05 0.09 0.11 0.18 0.27 0.34 0.40 0.33 0.20 0.12 0.09 0.08 0.08 0.09 0.11 0.13 0.14 0.15 0.18 0.21 0.23 0.25 0.30 0.31
0.01 0.02 0.02 0.02 0.01 0.01 0.01 0.01 0.01 0.01 0.01 0.01 0.01 0.02 0.02 0.02 0.02 0.02 0.02 0.03 0.05 0.05 0.06 0.08 0.11 0.11 0.08 0.05 0.05 0.04 0.04 0.05 0.06 0.07 0.08 0.09 0.11 0.14 0.17 0.18 0.18 0.21 0.25
0.01 0.02 0.01 0.01 0.01 0.01 0.02 0.02 0.02 0.01 0.01 0.01 0.01 0.01 0.01 0.02 0.02 0.02 0.03 0.02 0.03 0.03 0.03 0.03 0.03 0.03 0.02 0.02 0.03 0.03 0.03 0.04 0.05 0.05 0.07 0.08 0.09 0.11 0.14 0.16 0.16 0.16 0.18
0.01 0.02 0.02 0.02 0.01 0.02 0.02 0.02 0.02 0.02 0.01 0.01 0.01 0.01 0.01 0.01 0.02 0.02 0.02 0.02 0.02 0.02 0.03 0.03 0.03 0.03 0.03 0.03 0.03 0.04 0.04 0.05 0.05 0.06 0.07 0.08 0.08 0.09 0.10 0.12 0.13 0.13 0.13
0.01 0.01 0.02 0.03 0.03 0.03 0.03 0.03 0.02 0.02 0.02 0.02 0.01 0.01 0.01 0.01 0.01 0.02 0.02 0.02 0.02 0.02 0.02 0.03 0.04 0.04 0.05 0.05 0.05 0.05 0.05 0.05 0.06 0.08 0.10 0.09 0.09 0.09 0.09 0.09 0.10 0.11 0.11
0.01 0.01 0.02 0.02 0.03 0.03 0.03 0.03 0.02 0.02 0.02 0.02 0.02 0.02 0.02 0.02 0.02 0.02 0.01 0.01 0.01 0.01 0.02 0.02 0.03 0.04 0.04 0.05 0.06 0.06 0.06 0.06 0.06 0.07 0.09 0.12 0.11 0.10 0.09 0.09 0.10 0.11 0.11
0.01 0.01 0.02 0.02 0.03 0.03 0.04 0.04 0.03 0.02 0.01 0.02 0.02 0.02 0.02 0.02 0.02 0.01 0.01 0.01 0.01 0.01 0.01 0.02 0.02 0.03 0.03 0.04 0.06 0.07 0.10 0.09 0.07 0.07 0.08 0.11 0.13 0.13 0.12 0.11 0.11 0.12 0.13
0.02 0.02 0.02 0.02 0.02 0.02 0.03 0.04 0.04 0.03 0.02 0.02 0.02 0.02 0.02 0.01 0.02 0.01 0.01 0.00 0.01 0.01 0.01 0.02 0.02 0.02 0.03 0.04 0.05 0.08 0.09 0.08 0.07 0.08 0.08 0.10 0.13 0.14 0.16 0.15 0.13 0.13 0.13

GEFSGL_prec_meanprecacc_102.txt.gz
Total_Precipitation_Accumulation
1.22 1.18 1.06 0.86 0.75 0.76 0.77 0.73 0.68 0.71 0.66 0.68 0.66 0.70 0.81 0.80 0.80 0.88 0.94 0.95 1.02 1.12 1.17 1.18 1.32 1.48 1.58 1.62 1.63 1.61 1.58 1.47 1.25 1.09 0.86 0.69 0.72 0.72 0.75 0.66 0.70 0.74 0.67
0.93 0.84 0.72 0.57 0.51 0.56 0.57 0.52 0.44 0.47 0.44 0.51 0.55 0.54 0.70 0.86 0.88 0.91 0.91 0.86 0.89 0.94 0.99 1.05 1.15 1.20 1.29 1.43 1.55 1.54 1.57 1.57 1.41 1.26 1.07 0.88 0.81 0.78 0.87 0.89 0.86 0.83 0.81
0.87 0.72 0.64 0.57 0.54 0.53 0.47 0.40 0.32 0.31 0.33 0.38 0.51 0.50 0.54 0.71 0.83 0.83 0.78 0.77 0.79 0.81 0.85 0.89 0.95 1.05 1.16 1.21 1.30 1.40 1.46 1.48 1.48 1.35 1.28 1.16 1.01 0.89 0.90 0.89 0.96 1.07 1.04
1.05 0.84 0.72 0.67 0.56 0.47 0.37 0.34 0.29 0.32 0.36 0.35 0.35 0.37 0.43 0.53 0.65 0.66 0.64 0.64 0.64 0.68 0.79 0.87 0.93 0.97 1.04 1.11 1.14 1.26 1.36 1.42 1.39 1.32 1.27 1.22 1.14 1.09 1.05 1.01 1.08 1.19 1.25
0.73 0.54 0.46 0.44 0.39 0.31 0.25 0.23 0.22 0.22 0.22 0.24 0.21 0.22 0.27 0.34 0.39 0.40 0.47 0.52 0.58 0.64 0.74 0.80 0.83 0.79 0.83 0.91 0.90 1.04 1.18 1.31 1.33 1.35 1.28 1.19 1.13 1.10 1.06 1.06 1.11 1.27 1.34
0.36 0.29 0.25 0.21 0.18 0.16 0.15 0.15 0.11 0.09 0.09 0.14 0.14 0.16 0.20 0.22 0.26 0.24 0.29 0.42 0.53 0.60 0.66 0.71 0.79 0.81 0.77 0.72 0.72 0.79 0.90 1.00 1.11 1.20 1.23 1.16 1.11 1.08 1.13 1.20 1.19 1.26 1.39
0.08 0.07 0.07 0.07 0.07 0.06 0.06 0.07 0.07 0.06 0.06 0.08 0.08 0.13 0.17 0.13 0.15 0.14 0.24 0.45 0.51 0.53 0.52 0.65 0.77 0.83 0.85 0.87 0.76 0.75 0.76 0.79 0.84 0.98 1.07 1.08 1.08 1.08 1.09 1.17 1.23 1.24 1.17
0.01 0.02 0.01 0.02 0.03 0.04 0.05 0.05 0.03 0.02 0.03 0.07 0.08 0.14 0.14 0.09 0.10 0.13 0.19 0.36 0.45 0.43 0.45 0.55 0.71 0.82 0.86 0.87 0.82 0.89 0.87 0.77 0.73 0.78 0.94 1.00 1.00 1.11 1.18 1.25 1.33 1.30 1.28
0.00 0.00 0.00 0.01 0.01 0.02 0.02 0.02 0.01 0.01 0.02 0.05 0.09 0.10 0.07 0.04 0.06 0.10 0.18 0.35 0.44 0.44 0.41 0.49 0.65 0.75 0.84 0.85 0.82 0.92 0.94 0.76 0.68 0.76 0.78 0.84 0.91 1.02 1.17 1.26 1.31 1.29 1.29
0.00 0.00 0.00 0.00 0.01 0.01 0.01 0.01 0.01 0.01 0.01 0.02 0.04 0.06 0.05 0.06 0.05 0.05 0.12 0.23 0.32 0.40 0.41 0.46 0.66 0.72 0.75 0.71 0.73 0.94 1.04 0.91 0.67 0.65 0.70 0.80 0.87 0.99 1.19 1.30 1.45 1.40 1.22
0.00 0.00 0.01 0.01 0.01 0.02 0.03 0.02 0.01 0.01 0.01 0.01 0.02 0.03 0.03 0.03 0.05 0.05 0.10 0.12 0.16 0.22 0.28 0.33 0.37 0.49 0.52 0.56 0.67 0.78 0.88 0.79 0.71 0.79 0.88 0.91 0.97 1.02 1.08 1.19 1.36 1.45 1.31
0.01 0.01 0.01 0.01 0.01 0.02 0.05 0.04 0.02 0.01 0.01 0.01 0.02 0.03 0.03 0.03 0.03 0.03 0.06 0.07 0.09 0.14 0.18 0.23 0.27 0.36 0.41 0.47 0.54 0.59 0.62 0.68 0.73 0.87 0.89 0.82 0.86 0.92 0.92 0.99 1.12 1.21 1.07
0.00 0.01 0.01 0.01 0.02 0.03 0.03 0.03 0.02 0.01 0.01 0.01 0.02 0.03 0.04 0.05 0.03 0.03 0.03 0.04 0.05 0.08 0.11 0.17 0.21 0.29 0.30 0.36 0.44 0.44 0.53 0.75 0.86 0.80 0.78 0.75 0.74 0.77 0.75 0.85 1.02 1.14 1.06
0.00 0.00 0.01 0.01 0.02 0.03 0.02 0.01 0.01 0.01 0.02 0.02 0.02 0.03 0.04 0.07 0.03 0.01 0.03 0.05 0.07 0.09 0.11 0.15 0.19 0.27 0.30 0.33 0.38 0.46 0.57 0.72 0.85 0.71 0.59 0.62 0.63 0.70 0.76 0.75 0.82 0.90 1.02
0.00 0.00 0.01 0.01 0.02 0.03 0.02 0.01 0.01 0.01 0.01 0.01 0.02 0.03 0.02 0.02 0.01 0.01 0.02 0.04 0.08 0.08 0.12 0.21 0.32 0.43 0.43 0.44 0.50 0.54 0.57 0.56 0.60 0.54 0.54 0.59 0.62 0.63 0.69 0.71 0.71 0.69 0.71
0.00 0.00 0.01 0.01 0.02 0.02 0.03 0.03 0.02 0.01 0.01 0.01 0.01 0.01 0.01 0.01 0.01 0.04 0.07 0.06 0.08 0.10 0.19 0.25 0.37 0.50 0.54 0.57 0.57 0.57 0.59 0.55 0.54 0.49 0.50 0.51 0.52 0.51 0.52 0.60 0.66 0.70 0.65
0.01 0.01 0.01 0.01 0.02 0.02 0.03 0.04 0.04 0.03 0.02 0.01 0.01 0.01 0.01 0.01 0.02 0.03 0.06 0.09 0.11 0.18 0.20 0.26 0.44 0.49 0.45 0.46 0.51 0.53 0.48 0.39 0.36 0.35 0.31 0.32 0.33 0.33 0.34 0.40 0.49 0.55 0.55
0.01 0.01 0.02 0.02 0.02 0.02 0.02 0.03 0.03 0.05 0.06 0.05 0.02 0.01 0.01 0.01 0.02 0.03 0.04 0.08 0.14 0.19 0.23 0.36 0.49 0.51 0.44 0.36 0.31 0.27 0.23 0.19 0.18 0.19 0.19 0.19 0.23 0.26 0.26 0.27 0.32 0.35 0.39
0.01 0.02 0.02 0.03 0.03 0.03 0.03 0.03 0.03 0.03 0.04 0.05 0.05 0.04 0.03 0.02 0.02 0.02 0.03 0.06 0.09 0.11 0.18 0.27 0.34 0.40 0.33 0.20 0.12 0.09 0.08 0.08 0.09 0.11 0.13 0.14 0.15 0.18 0.21 0.23 0.25 0.30 0.31
0.02 0.02 0.03 0.03 0.04 0.04 0.05 0.04 0.04 0.04 0.03 0.03 0.03 0.04 0.05 0.05 0.04 0.03 0.03 0.04 0.05 0.05 0.06 0.08 0.11 0.11 0.08 0.05 0.05 0.04 0.04 0.05 0.06 0.07 0.08 0.09 0.11 0.14 0.17 0.18 0.18 0.21 0.25
0.02 0.02 0.02 0.03 0.03 0.04 0.05 0.05 0.06 0.05 0.05 0.04 0.03 0.04 0.04 0.04 0.04 0.04 0.04 0.04 0.04 0.03 0.03 0.03 0.03 0.03 0.02 0.02 0.03 0.03 0.03 0.04 0.05 0.05 0.07 0.08 0.09 0.11 0.14 0.16 0.16 0.16 0.18
0.01 0.02 0.03 0.03 0.03 0.04 0.06 0.07 0.07 0.07 0.06 0.06 0.04 0.04 0.04 0.04 0.04 0.04 0.04 0.04 0.04 0.04 0.04 0.04 0.04 0.04 0.04 0.03 0.04 0.04 0.04 0.05 0.05 0.06 0.07 0.08 0.08 0.09 0.10 0.12 0.13 0.13 0.13
0.01 0.02 0.03 0.04 0.05 0.07 0.08 0.08 0.07 0.07 0.07 0.07 0.06 0.05 0.05 0.04 0.04 0.04 0.04 0.04 0.04 0.04 0.04 0.04 0.05 0.05 0.05 0.05 0.05 0.05 0.05 0.05 0.06 0.08 0.10 0.09 0.09 0.09 0.09 0.09 0.10 0.11 0.11
0.01 0.02 0.02 0.04 0.06 0.07 0.08 0.09 0.09 0.08 0.08 0.09 0.08 0.07 0.06 0.06 0.06 0.06 0.05 0.04 0.03 0.03 0.03 0.04 0.04 0.04 0.05 0.06 0.06 0.06 0.07 0.06 0.06 0.07 0.09 0.12 0.11 0.10 0.09 0.09 0.10 0.11 0.11
0.01 0.02 0.03 0.04 0.05 0.07 0.09 0.10 0.10 0.10 0.08 0.08 0.08 0.08 0.08 0.07 0.06 0.05 0.05 0.04 0.04 0.03 0.03 0.04 0.04 0.04 0.04 0.05 0.06 0.08 0.11 0.10 0.07 0.07 0.08 0.11 0.13 0.13 0.12 0.11 0.11 0.12 0.13
0.02 0.02 0.03 0.03 0.05 0.07 0.09 0.10 0.10 0.11 0.10 0.09 0.09 0.09 0.09 0.08 0.08 0.07 0.05 0.05 0.05 0.04 0.04 0.04 0.04 0.04 0.04 0.04 0.06 0.08 0.10 0.08 0.07 0.08 0.08 0.10 0.13 0.14 0.16 0.15 0.13 0.13 0.13

GEFSGL_prec_meanprecacc_108.txt.gz
Total_Precipitation_Accumulation
1.22 1.18 1.06 0.86 0.75 0.76 0.77 0.73 0.68 0.71 0.66 0.68 0.66 0.70 0.81 0.80 0.80 0.88 0.94 0.96 1.03 1.13 1.18 1.20 1.35 1.50 1.60 1.65 1.67 1.66 1.63 1.52 1.30 1.12 0.88 0.72 0.74 0.75 0.78 0.68 0.73 0.78 0.70
0.93 0.84 0.72 0.57 0.51 0.56 0.57 0.52 0.44 0.47 0.44 0.51 0.55 0.54 0.70 0.86 0.88 0.91 0.92 0.87 0.91 0.96 1.01 1.08 1.19 1.23 1.32 1.46 1.57 1.57 1.61 1.60 1.45 1.31 1.09 0.91 0.83 0.80 0.90 0.91 0.89 0.87 0.85
0.87 0.72 0.64 0.57 0.54 0.53 0.47 0.40 0.32 0.31 0.33 0.38 0.51 0.50 0.54 0.71 0.83 0.83 0.78 0.77 0.80 0.83 0.87 0.92 0.98 1.08 1.19 1.22 1.32 1.42 1.48 1.50 1.51 1.39 1.31 1.19 1.03 0.92 0.92 0.91 0.98 1.11 1.09
1.05 0.84 0.72 0.67 0.56 0.47 0.37 0.34 0.29 0.32 0.36 0.35 0.35 0.37 0.43 0.53 0.65 0.66 0.64 0.64 0.65 0.68 0.80 0.88 0.94 0.98 1.06 1.12 1.16 1.27 1.38 1.44 1.42 1.35 1.30 1.24 1.17 1.12 1.07 1.03 1.10 1.21 1.27
0.73 0.54 0.46 0.44 0.39 0.31 0.25 0.23 0.22 0.22 0.22 0.24 0.21 0.22 0.27 0.34 0.39 0.40 0.47 0.52 0.59 0.65 0.75 0.80 0.84 0.80 0.84 0.92 0.91 1.06 1.20 1.34 1.37 1.39 1.31 1.21 1.15 1.12 1.08 1.08 1.14 1.29 1.36
0.36 0.29 0.25 0.21 0.18 0.16 0.16 0.15 0.11 0.09 0.09 0.14 0.14 0.16 0.20 0.22 0.26 0.24 0.29 0.42 0.53 0.60 0.66 0.72 0.79 0.82 0.77 0.73 0.73 0.80 0.91 1.01 1.13 1.24 1.28 1.19 1.13 1.10 1.15 1.22 1.21 1.28 1.41
0.08 0.07 0.07 0.07 0.07 0.06 0.06 0.07 0.07 0.07 0.06 0.08 0.08 0.13 0.17 0.13 0.15 0.14 0.24 0.45 0.51 0.53 0.52 0.65 0.77 0.83 0.86 0.88 0.77 0.75 0.77 0.80 0.86 1.00 1.12 1.11 1.10 1.10 1.11 1.18 1.24 1.26 1.19
0.01 0.02 0.02 0.02 0.04 0.05 0.06 0.05 0.03 0.03 0.03 0.07 0.08 0.14 0.14 0.09 0.10 0.13 0.19 0.36 0.45 0.43 0.45 0.56 0.71 0.83 0.86 0.88 0.83 0.89 0.87 0.78 0.73 0.78 0.95 1.02 1.02 1.13 1.21 1.28 1.36 1.32 1.30
0.00 0.01 0.00 0.01 0.01 0.02 0.02 0.02 0.01 0.01 0.02 0.06 0.09 0.10 0.07 0.04 0.06 0.10 0.18 0.35 0.44 0.44 0.41 0.49 0.65 0.75 0.84 0.85 0.82 0.92 0.94 0.76 0.68 0.76 0.78 0.84 0.92 1.03 1.19 1.29 1.35 1.32 1.32
0.00 0.01 0.00 0.00 0.01 0.01 0.02 0.01 0.01 0.01 0.02 0.03 0.05 0.06 0.05 0.06 0.05 0.05 0.12 0.23 0.32 0.40 0.41 0.46 0.66 0.72 0.75 0.71 0.73 0.94 1.04 0.91 0.67 0.65 0.70 0.81 0.87 0.99 1.20 1.31 1.47 1.43 1.25
0.00 0.00 0.01 0.01 0.01 0.02 0.03 0.03 0.02 0.02 0.02 0.02 0.03 0.04 0.03 0.03 0.05 0.05 0.10 0.12 0.16 0.22 0.28 0.33 0.37 0.49 0.52 0.56 0.67 0.78 0.88 0.79 0.71 0.79 0.88 0.91 0.97 1.02 1.09 1.19 1.37 1.46 1.33
0.01 0.01 0.01 0.01 0.01 0.03 0.06 0.04 0.03 0.02 0.02 0.03 0.03 0.04 0.04 0.04 0.03 0.04 0.06 0.07 0.09 0.14 0.18 0.23 0.27 0.36 0.41 0.47 0.54 0.59 0.62 0.68 0.73 0.87 0.90 0.82 0.86 0.93 0.92 0.99 1.12 1.22 1.08
0.00 0.01 0.01 0.01 0.02 0.03 0.03 0.04 0.03 0.03 0.03 0.03 0.04 0.04 0.05 0.06 0.04 0.03 0.04 0.04 0.05 0.08 0.11 0.17 0.21 0.29 0.30 0.36 0.44 0.44 0.53 0.75 0.86 0.80 0.78 0.75 0.74 0.77 0.76 0.85 1.02 1.14 1.06
0.00 0.00 0.01 0.01 0.03 0.03 0.02 0.02 0.03 0.03 0.03 0.04 0.04 0.05 0.06 0.08 0.04 0.02 0.03 0.05 0.07 0.09 0.11 0.15 0.19 0.27 0.30 0.33 0.38 0.46 0.57 0.72 0.85 0.71 0.60 0.62 0.63 0.70 0.76 0.75 0.82 0.90 1.02
0.00 0.00 0.01 0.01 0.03 0.04 0.03 0.03 0.03 0.03 0.03 0.04 0.04 0.06 0.05 0.04 0.03 0.02 0.03 0.04 0.08 0.09 0.12 0.21 0.33 0.43 0.44 0.44 0.50 0.54 0.57 0.56 0.60 0.54 0.54 0.59 0.62 0.63 0.69 0.71 0.71 0.70 0.71
0.00 0.00 0.01 0.01 0.02 0.03 0.05 0.05 0.04 0.03 0.03 0.03 0.03 0.03 0.04 0.03 0.03 0.05 0.08 0.07 0.08 0.10 0.19 0.25 0.37 0.50 0.54 0.57 0.57 0.57 0.60 0.55 0.54 0.49 0.50 0.51 0.52 0.52 0.53 0.60 0.66 0.70 0.65
0.01 0.01 0.01 0.01 0.02 0.03 0.04 0.06 0.06 0.05 0.04 0.03 0.03 0.03 0.03 0.04 0.04 0.05 0.07 0.10 0.12 0.19 0.21 0.27 0.44 0.49 0.46 0.46 0.51 0.53 0.48 0.39 0.36 0.36 0.31 0.32 0.33 0.33 0.34 0.41 0.49 0.55 0.55
0.01 0.01 0.02 0.02 0.02 0.03 0.03 0.04 0.05 0.07 0.08 0.07 0.05 0.04 0.04 0.04 0.05 0.06 0.06 0.09 0.15 0.20 0.23 0.37 0.50 0.52 0.45 0.37 0.32 0.28 0.23 0.19 0.18 0.19 0.19 0.19 0.23 0.26 0.27 0.27 0.32 0.35 0.39
0.01 0.02 0.02 0.03 0.03 0.03 0.04 0.04 0.05 0.05 0.06 0.08 0.08 0.07 0.07 0.07 0.06 0.05 0.06 0.07 0.10 0.12 0.19 0.28 0.36 0.41 0.34 0.21 0.13 0.10 0.09 0.09 0.10 0.11 0.13 0.14 0.15 0.18 0.22 0.24 0.25 0.30 0.31
0.02 0.02 0.03 0.04 0.04 0.04 0.05 0.05 0.05 0.06 0.06 0.06 0.07 0.09 0.11 0.10 0.08 0.07 0.06 0.06 0.07 0.07 0.08 0.10 0.13 0.13 0.09 0.07 0.06 0.05 0.05 0.06 0.07 0.07 0.08 0.09 0.11 0.14 0.17 0.18 0.19 0.21 0.25
0.02 0.02 0.02 0.03 0.03 0.04 0.05 0.06 0.06 0.07 0.07 0.08 0.08 0.09 0.12 0.12 0.10 0.09 0.08 0.07 0.06 0.06 0.06 0.06 0.06 0.06 0.05 0.04 0.05 0.04 0.04 0.05 0.06 0.06 0.07 0.08 0.09 0.11 0.14 0.16 0.16 0.16 0.18
0.01 0.02 0.03 0.03 0.04 0.04 0.06 0.07 0.07 0.08 0.08 0.09 0.09 0.10 0.12 0.12 0.11 0.10 0.08 0.08 0.07 0.07 0.08 0.08 0.08 0.08 0.07 0.06 0.06 0.06 0.05 0.05 0.06 0.06 0.07 0.08 0.09 0.09 0.10 0.12 0.13 0.13 0.13
0.01 0.02 0.03 0.04 0.05 0.07 0.08 0.09 0.08 0.08 0.09 0.10 0.10 0.11 0.11 0.11 0.12 0.11 0.10 0.09 0.09 0.09 0.09 0.10 0.10 0.10 0.10 0.09 0.08 0.08 0.07 0.06 0.07 0.09 0.10 0.10 0.09 0.09 0.09 0.10 0.10 0.11 0.11
0.01 0.02 0.03 0.04 0.06 0.08 0.09 0.09 0.09 0.09 0.10 0.11 0.11 0.12 0.12 0.13 0.13 0.13 0.12 0.10 0.09 0.09 0.08 0.08 0.09 0.09 0.09 0.10 0.11 0.10 0.09 0.09 0.08 0.09 0.11 0.13 0.12 0.10 0.09 0.10 0.10 0.11 0.11
0.02 0.02 0.03 0.04 0.06 0.08 0.09 0.10 0.10 0.11 0.10 0.11 0.12 0.13 0.14 0.14 0.14 0.13 0.13 0.12 0.11 0.10 0.10 0.09 0.08 0.08 0.08 0.09 0.10 0.11 0.15 0.14 0.11 0.10 0.10 0.13 0.14 0.14 0.13 0.12 0.11 0.12 0.13
0.03 0.03 0.03 0.04 0.05 0.07 0.09 0.10 0.11 0.12 0.12 0.11 0.12 0.13 0.14 0.16 0.17 0.16 0.15 0.14 0.14 0.13 0.12 0.11 0.10 0.09 0.09 0.09 0.10 0.13 0.15 0.13 0.12 0.12 0.12 0.12 0.14 0.15 0.16 0.15 0.13 0.13 0.14

GEFSGL_prec_meanprecacc_114.txt.gz
Total_Precipitation_Accumulation
1.22 1.18 1.06 0.86 0.75 0.76 0.77 0.73 0.68 0.71 0.66 0.68 0.66 0.70 0.81 0.80 0.80 0.89 0.95 0.98 1.07 1.16 1.20 1.21 1.38 1.53 1.65 1.69 1.71 1.70 1.71 1.63 1.41 1.22 0.95 0.77 0.81 0.81 0.83 0.74 0.79 0.83 0.73
0.93 0.84 0.72 0.57 0.51 0.56 0.57 0.52 0.44 0.47 0.44 0.51 0.55 0.54 0.70 0.86 0.88 0.91 0.92 0.89 0.94 0.98 1.03 1.12 1.22 1.26 1.35 1.49 1.61 1.61 1.66 1.68 1.55 1.42 1.16 0.95 0.89 0.87 0.96 0.99 0.97 0.94 0.90
0.87 0.72 0.64 0.57 0.54 0.53 0.47 0.40 0.32 0.31 0.33 0.38 0.51 0.50 0.54 0.71 0.83 0.83 0.78 0.78 0.82 0.85 0.90 0.95 1.01 1.11 1.21 1.24 1.35 1.45 1.52 1.55 1.58 1.48 1.39 1.25 1.08 0.97 0.98 0.95 1.05 1.19 1.15
1.05 0.84 0.72 0.67 0.56 0.47 0.37 0.34 0.29 0.32 0.36 0.35 0.35 0.37 0.43 0.53 0.65 0.66 0.64 0.64 0.65 0.69 0.80 0.89 0.95 1.00 1.08 1.15 1.18 1.31 1.43 1.51 1.49 1.43 1.37 1.31 1.23 1.17 1.12 1.07 1.13 1.26 1.33
0.73 0.54 0.46 0.44 0.39 0.31 0.25 0.23 0.22 0.22 0.22 0.24 0.21 0.22 0.27 0.35 0.39 0.40 0.47 0.52 0.59 0.65 0.75 0.80 0.84 0.81 0.85 0.92 0.92 1.09 1.24 1.40 1.44 1.46 1.37 1.27 1.20 1.18 1.14 1.13 1.18 1.33 1.40
0.36 0.29 0.25 0.21 0.18 0.16 0.16 0.15 0.11 0.09 0.09 0.14 0.14 0.16 0.20 0.22 0.27 0.25 0.29 0.42 0.53 0.60 0.67 0.72 0.79 0.82 0.78 0.73 0.73 0.80 0.93 1.04 1.18 1.31 1.34 1.24 1.17 1.14 1.20 1.27 1.27 1.32 1.44
0.08 0.07 0.07 0.07 0.07 0.06 0.06 0.07 0.07 0.07 0.06 0.09 0.09 0.13 0.17 0.14 0.16 0.15 0.25 0.45 0.51 0.53 0.52 0.65 0.77 0.83 0.86 0.88 0.77 0.75 0.77 0.80 0.87 1.03 1.17 1.17 1.14 1.13 1.14 1.21 1.28 1.30 1.22
0.01 0.02 0.02 0.02 0.04 0.05 0.06 0.05 0.04 0.03 0.03 0.07 0.08 0.15 0.14 0.09 0.11 0.14 0.21 0.37 0.45 0.43 0.45 0.56 0.71 0.83 0.86 0.88 0.83 0.90 0.88 0.78 0.74 0.79 0.98 1.06 1.05 1.15 1.23 1.32 1.40 1.36 1.33
0.00 0.01 0.00 0.01 0.01 0.02 0.02 0.02 0.01 0.01 0.02 0.06 0.09 0.11 0.08 0.05 0.07 0.11 0.20 0.36 0.44 0.44 0.41 0.49 0.65 0.75 0.84 0.85 0.83 0.93 0.94 0.77 0.68 0.76 0.80 0.86 0.94 1.06 1.22 1.33 1.40 1.37 1.37
0.00 0.01 0.00 0.00 0.01 0.01 0.02 0.01 0.01 0.01 0.02 0.03 0.06 0.07 0.06 0.07 0.06 0.07 0.15 0.25 0.34 0.41 0.41 0.46 0.66 0.72 0.75 0.71 0.73 0.94 1.04 0.91 0.68 0.65 0.71 0.82 0.89 1.01 1.22 1.34 1.52 1.49 1.31
0.00 0.00 0.01 0.01 0.01 0.02 0.03 0.03 0.02 0.02 0.02 0.02 0.03 0.04 0.04 0.04 0.06 0.07 0.13 0.15 0.19 0.24 0.28 0.34 0.37 0.49 0.52 0.56 0.67 0.79 0.89 0.80 0.72 0.80 0.88 0.92 0.98 1.03 1.11 1.21 1.39 1.51 1.40
0.01 0.01 0.01 0.01 0.01 0.03 0.06 0.04 0.03 0.02 0.02 0.03 0.04 0.04 0.05 0.05 0.05 0.06 0.09 0.11 0.12 0.16 0.19 0.24 0.28 0.37 0.41 0.47 0.55 0.59 0.63 0.68 0.74 0.87 0.90 0.83 0.87 0.93 0.93 1.00 1.14 1.24 1.11
0.00 0.01 0.01 0.01 0.02 0.03 0.03 0.04 0.03 0.03 0.03 0.03 0.04 0.05 0.06 0.07 0.06 0.06 0.07 0.08 0.09 0.11 0.13 0.19 0.23 0.30 0.31 0.37 0.44 0.45 0.53 0.75 0.86 0.80 0.78 0.76 0.75 0.78 0.76 0.86 1.03 1.15 1.08
0.00 0.00 0.01 0.01 0.03 0.03 0.02 0.02 0.03 0.03 0.03 0.04 0.05 0.05 0.07 0.10 0.06 0.05 0.07 0.10 0.12 0.15 0.15 0.18 0.21 0.28 0.31 0.34 0.39 0.47 0.58 0.73 0.85 0.71 0.60 0.62 0.63 0.71 0.77 0.75 0.83 0.90 1.03
0.00 0.00 0.01 0.01 0.03 0.04 0.03 0.03 0.03 0.03 0.03 0.04 0.04 0.06 0.05 0.06 0.05 0.07 0.08 0.11 0.15 0.16 0.19 0.26 0.36 0.45 0.45 0.46 0.51 0.55 0.58 0.57 0.61 0.55 0.54 0.59 0.63 0.64 0.70 0.72 0.72 0.70 0.72
0.00 0.00 0.01 0.01 0.02 0.03 0.05 0.05 0.04 0.03 0.04 0.03 0.03 0.04 0.04 0.04 0.06 0.10 0.13 0.13 0.15 0.18 0.28 0.32 0.42 0.54 0.57 0.59 0.60 0.60 0.62 0.57 0.56 0.50 0.51 0.53 0.54 0.53 0.55 0.62 0.68 0.72 0.66
0.01 0.01 0.01 0.01 0.02 0.03 0.04 0.06 0.06 0.05 0.04 0.03 0.03 0.03 0.04 0.05 0.06 0.09 0.12 0.15 0.19 0.27 0.29 0.33 0.49 0.53 0.49 0.50 0.56 0.59 0.54 0.44 0.41 0.39 0.34 0.35 0.35 0.35 0.37 0.43 0.51 0.57 0.57
0.01 0.01 0.02 0.02 0.02 0.03 0.04 0.04 0.05 0.07 0.08 0.07 0.05 0.04 0.05 0.05 0.07 0.09 0.11 0.16 0.22 0.28 0.31 0.44 0.56 0.57 0.49 0.42 0.38 0.35 0.31 0.27 0.26 0.26 0.24 0.23 0.26 0.29 0.30 0.30 0.34 0.37 0.41
0.01 0.02 0.02 0.03 0.03 0.03 0.04 0.04 0.05 0.05 0.06 0.08 0.09 0.08 0.08 0.08 0.08 0.08 0.11 0.15 0.18 0.20 0.27 0.37 0.44 0.49 0.41 0.28 0.21 0.19 0.17 0.18 0.19 0.21 0.21 0.20 0.20 0.21 0.25 0.27 0.28 0.32 0.34
0.02 0.02 0.03 0.04 0.04 0.04 0.05 0.05 0.05 0.06 0.06 0.06 0.07 0.09 0.12 0.11 0.10 0.10 0.11 0.13 0.15 0.15 0.16 0.20 0.22 0.23 0.18 0.15 0.16 0.16 0.16 0.17 0.18 0.19 0.20 0.19 0.18 0.19 0.20 0.21 0.22 0.24 0.28
0.02 0.02 0.02 0.03 0.04 0.04 0.05 0.06 0.06 0.07 0.07 0.08 0.08 0.09 0.12 0.13 0.12 0.13 0.13 0.14 0.15 0.15 0.15 0.17 0.18 0.18 0.16 0.15 0.15 0.16 0.16 0.17 0.19 0.20 0.21 0.20 0.18 0.18 0.19 0.19 0.19 0.19 0.21
0.01 0.02 0.03 0.03 0.04 0.05 0.06 0.07 0.07 0.08 0.08 0.09 0.09 0.10 0.12 0.13 0.13 0.13 0.14 0.15 0.16 0.17 0.18 0.19 0.20 0.22 0.20 0.18 0.17 0.17 0.17 0.16 0.18 0.21 0.23 0.23 0.20 0.19 0.17 0.17 0.16 0.16 0.16
0.01 0.02 0.03 0.04 0.05 0.07 0.08 0.09 0.08 0.09 0.09 0.10 0.11 0.11 0.12 0.12 0.13 0.13 0.13 0.15 0.17 0.19 0.20 0.20 0.21 0.22 0.22 0.22 0.21 0.21 0.19 0.17 0.18 0.21 0.25 0.26 0.24 0.22 0.20 0.17 0.15 0.15 0.15
0.01 0.02 0.03 0.04 0.06 0.08 0.09 0.10 0.10 0.10 0.10 0.11 0.12 0.12 0.13 0.13 0.14 0.15 0.15 0.15 0.16 0.19 0.20 0.20 0.19 0.20 0.20 0.21 0.22 0.22 0.21 0.19 0.19 0.22 0.25 0.28 0.27 0.24 0.23 0.21 0.18 0.16 0.16
0.02 0.02 0.03 0.04 0.06 0.08 0.10 0.10 0.11 0.11 0.11 0.11 0.12 0.13 0.14 0.15 0.15 0.15 0.15 0.15 0.16 0.18 0.21 0.21 0.19 0.19 0.18 0.18 0.20 0.21 0.26 0.26 0.23 0.23 0.23 0.27 0.29 0.28 0.26 0.24 0.22 0.19 0.18
0.03 0.03 0.03 0.04 0.06 0.08 0.10 0.11 0.12 0.12 0.12 0.12 0.12 0.13 0.15 0.16 0.18 0.18 0.17 0.17 0.18 0.20 0.22 0.23 0.21 0.19 0.18 0.18 0.20 0.22 0.25 0.25 0.25 0.25 0.25 0.25 0.27 0.28 0.28 0.26 0.24 0.22 0.20

GEFSGL_prec_meanprecacc_120.txt.gz
Total_Precipitation_Accumulation
1.22 1.18 1.06 0.86 0.75 0.76 0.77 0.73 0.68 0.71 0.66 0.68 0.66 0.70 0.81 0.81 0.80 0.89 0.95 0.98 1.07 1.16 1.20 1.21 1.38 1.54 1.65 1.70 1.71 1.71 1.73 1.65 1.43 1.25 0.98 0.81 0.86 0.86 0.86 0.76 0.81 0.86 0.75
0.93 0.84 0.72 0.57 0.51 0.56 0.57 0.52 0.45 0.47 0.44 0.51 0.55 0.54 0.70 0.86 0.88 0.91 0.92 0.89 0.94 0.99 1.04 1.12 1.22 1.26 1.35 1.50 1.61 1.61 1.68 1.70 1.57 1.45 1.20 0.99 0.94 0.93 1.02 1.04 1.01 0.96 0.92
0.87 0.72 0.64 0.57 0.54 0.53 0.47 0.40 0.32 0.31 0.34 0.38 0.51 0.50 0.54 0.71 0.83 0.83 0.79 0.79 0.83 0.86 0.90 0.96 1.01 1.11 1.21 1.25 1.35 1.46 1.53 1.57 1.61 1.53 1.42 1.28 1.13 1.04 1.05 1.02 1.10 1.24 1.20
1.05 0.84 0.72 0.67 0.56 0.47 0.37 0.34 0.29 0.32 0.36 0.35 0.35 0.37 0.43 0.53 0.65 0.67 0.65 0.65 0.66 0.69 0.81 0.89 0.95 1.00 1.08 1.15 1.19 1.31 1.44 1.52 1.52 1.47 1.41 1.34 1.27 1.23 1.19 1.13 1.18 1.31 1.40
0.73 0.54 0.46 0.44 0.39 0.31 0.25 0.23 0.22 0.22 0.22 0.24 0.21 0.22 0.27 0.35 0.39 0.41 0.48 0.53 0.60 0.66 0.76 0.80 0.84 0.81 0.85 0.92 0.92 1.09 1.25 1.41 1.46 1.49 1.42 1.31 1.24 1.23 1.20 1.19 1.23 1.38 1.44
0.36 0.29 0.25 0.21 0.18 0.16 0.16 0.15 0.11 0.09 0.09 0.14 0.14 0.16 0.20 0.22 0.27 0.25 0.30 0.43 0.54 0.61 0.68 0.72 0.79 0.82 0.78 0.73 0.73 0.80 0.93 1.05 1.20 1.33 1.37 1.29 1.22 1.19 1.25 1.33 1.33 1.38 1.48
0.08 0.07 0.07 0.07 0.07 0.06 0.06 0.07 0.07 0.07 0.06 0.09 0.09 0.13 0.17 0.14 0.16 0.15 0.26 0.46 0.53 0.54 0.53 0.66 0.78 0.84 0.86 0.88 0.77 0.75 0.77 0.80 0.88 1.04 1.18 1.19 1.17 1.17 1.19 1.26 1.33 1.35 1.26
0.01 0.02 0.02 0.02 0.04 0.05 0.06 0.05 0.04 0.03 0.03 0.07 0.08 0.15 0.14 0.09 0.11 0.14 0.21 0.38 0.47 0.45 0.47 0.57 0.72 0.84 0.87 0.88 0.84 0.90 0.88 0.78 0.74 0.79 0.98 1.07 1.07 1.18 1.27 1.36 1.46 1.42 1.38
0.00 0.01 0.00 0.01 0.01 0.02 0.02 0.02 0.01 0.01 0.02 0.06 0.09 0.11 0.08 0.05 0.07 0.11 0.20 0.37 0.46 0.47 0.44 0.52 0.67 0.76 0.86 0.87 0.83 0.94 0.94 0.77 0.69 0.77 0.80 0.87 0.96 1.08 1.24 1.36 1.43 1.43 1.41
0.00 0.01 0.00 0.00 0.01 0.01 0.02 0.01 0.01 0.01 0.02 0.03 0.06 0.07 0.06 0.07 0.06 0.07 0.15 0.26 0.35 0.44 0.44 0.49 0.69 0.74 0.77 0.74 0.75 0.95 1.04 0.92 0.68 0.66 0.72 0.83 0.90 1.03 1.24 1.37 1.56 1.53 1.34
0.00 0.00 0.01 0.01 0.01 0.02 0.03 0.03 0.02 0.02 0.02 0.02 0.03 0.04 0.04 0.04 0.06 0.07 0.13 0.15 0.20 0.26 0.32 0.37 0.40 0.52 0.55 0.59 0.70 0.81 0.90 0.81 0.73 0.81 0.90 0.93 1.00 1.05 1.13 1.23 1.42 1.56 1.45
0.01 0.01 0.01 0.01 0.01 0.03 0.06 0.04 0.03 0.02 0.02 0.03 0.04 0.04 0.05 0.05 0.05 0.06 0.09 0.11 0.13 0.18 0.22 0.27 0.31 0.40 0.44 0.50 0.57 0.62 0.65 0.70 0.76 0.89 0.92 0.84 0.88 0.94 0.94 1.02 1.17 1.27 1.15
0.00 0.01 0.01 0.01 0.02 0.03 0.03 0.04 0.03 0.03 0.03 0.03 0.04 0.05 0.06 0.07 0.06 0.06 0.07 0.08 0.10 0.12 0.15 0.22 0.26 0.34 0.34 0.39 0.47 0.48 0.57 0.78 0.89 0.83 0.80 0.78 0.76 0.79 0.78 0.88 1.06 1.18 1.12
0.00 0.00 0.01 0.01 0.03 0.03 0.02 0.02 0.03 0.03 0.03 0.04 0.05 0.05 0.07 0.10 0.06 0.05 0.07 0.10 0.12 0.15 0.17 0.20 0.24 0.31 0.34 0.37 0.42 0.50 0.61 0.76 0.88 0.74 0.63 0.65 0.66 0.74 0.80 0.77 0.85 0.93 1.05
0.00 0.00 0.01 0.01 0.03 0.04 0.03 0.03 0.03 0.03 0.03 0.04 0.04 0.06 0.05 0.06 0.05 0.07 0.08 0.11 0.15 0.16 0.20 0.29 0.39 0.49 0.50 0.50 0.55 0.59 0.62 0.61 0.65 0.59 0.58 0.63 0.67 0.69 0.74 0.75 0.74 0.73 0.75
0.00 0.00 0.01 0.01 0.02 0.03 0.05 0.05 0.04 0.03 0.04 0.03 0.03 0.04 0.04 0.04 0.06 0.10 0.13 0.13 0.15 0.19 0.29 0.34 0.46 0.59 0.64 0.66 0.66 0.66 0.67 0.62 0.61 0.56 0.57 0.58 0.58 0.59 0.60 0.67 0.72 0.75 0.69
0.01 0.01 0.01 0.01 0.02 0.03 0.04 0.06 0.06 0.05 0.04 0.03 0.03 0.03 0.04 0.05 0.06 0.09 0.12 0.15 0.19 0.28 0.30 0.35 0.53 0.58 0.56 0.58 0.63 0.65 0.60 0.50 0.48 0.48 0.42 0.40 0.40 0.41 0.43 0.49 0.56 0.61 0.61
0.01 0.01 0.02 0.02 0.02 0.03 0.04 0.04 0.05 0.07 0.08 0.07 0.05 0.04 0.05 0.05 0.07 0.09 0.11 0.16 0.22 0.28 0.32 0.46 0.60 0.62 0.57 0.51 0.47 0.43 0.39 0.34 0.34 0.35 0.34 0.32 0.33 0.36 0.38 0.38 0.41 0.43 0.47
0.01 0.02 0.02 0.03 0.03 0.03 0.04 0.04 0.05 0.05 0.06 0.08 0.09 0.08 0.08 0.08 0.08 0.08 0.11 0.15 0.19 0.21 0.28 0.38 0.47 0.53 0.48 0.36 0.29 0.27 0.27 0.27 0.27 0.29 0.31 0.33 0.31 0.32 0.35 0.36 0.36 0.39 0.41
0.02 0.02 0.03 0.04 0.04 0.04 0.05 0.05 0.05 0.06 0.06 0.06 0.07 0.09 0.12 0.11 0.10 0.10 0.11 0.13 0.15 0.16 0.18 0.22 0.25 0.27 0.25 0.23 0.23 0.24 0.25 0.27 0.27 0.28 0.30 0.32 0.34 0.36 0.37 0.36 0.35 0.35 0.37
0.02 0.02 0.02 0.03 0.04 0.04 0.05 0.06 0.06 0.07 0.07 0.08 0.08 0.09 0.12 0.13 0.12 0.13 0.13 0.14 0.15 0.15 0.17 0.19 0.21 0.22 0.23 0.22 0.23 0.24 0.25 0.26 0.27 0.28 0.31 0.33 0.33 0.35 0.38 0.39 0.36 0.35 0.34
0.01 0.02 0.03 0.03 0.04 0.05 0.06 0.07 0.07 0.08 0.08 0.09 0.09 0.10 0.12 0.13 0.13 0.13 0.14 0.15 0.16 0.18 0.19 0.21 0.23 0.25 0.27 0.26 0.26 0.25 0.26 0.26 0.26 0.30 0.32 0.34 0.35 0.35 0.35 0.36 0.37 0.35 0.32
0.01 0.02 0.03 0.04 0.05 0.07 0.09 0.09 0.08 0.09 0.10 0.10 0.11 0.11 0.12 0.12 0.13 0.14 0.14 0.15 0.17 0.19 0.20 0.22 0.23 0.25 0.27 0.28 0.29 0.29 0.28 0.26 0.27 0.31 0.35 0.37 0.38 0.39 0.39 0.36 0.35 0.35 0.33
0.01 0.02 0.03 0.04 0.06 0.08 0.09 0.10 0.10 0.10 0.10 0.12 0.12 0.12 0.13 0.14 0.14 0.15 0.15 0.15 0.16 0.19 0.20 0.20 0.21 0.22 0.24 0.27 0.29 0.29 0.28 0.27 0.28 0.31 0.35 0.39 0.39 0.38 0.41 0.43 0.40 0.37 0.35
0.02 0.02 0.03 0.04 0.06 0.08 0.10 0.11 0.11 0.11 0.11 0.11 0.13 0.14 0.15 0.15 0.15 0.15 0.15 0.15 0.16 0.19 0.22 0.22 0.21 0.21 0.22 0.23 0.25 0.27 0.33 0.33 0.30 0.30 0.31 0.36 0.39 0.39 0.39 0.41 0.43 0.44 0.41
0.03 0.03 0.03 0.04 0.06 0.08 0.10 0.11 0.12 0.13 0.13 0.12 0.13 0.14 0.15 0.17 0.18 0.18 0.17 0.18 0.19 0.20 0.22 0.23 0.22 0.22 0.22 0.23 0.24 0.28 0.32 0.31 0.29 0.31 0.32 0.33 0.36 0.38 0.39 0.40 0.40 0.43 0.45

GEFSGL_prec_meanprecacc_126.txt.gz
Total_Precipitation_Accumulation
1.22 1.18 1.06 0.86 0.75 0.76 0.77 0.73 0.68 0.71 0.66 0.68 0.66 0.70 0.81 0.81 0.80 0.89 0.95 0.98 1.07 1.16 1.20 1.22 1.39 1.54 1.66 1.70 1.72 1.71 1.73 1.65 1.43 1.25 0.99 0.81 0.88 0.87 0.89 0.79 0.84 0.90 0.79
0.93 0.84 0.72 0.57 0.51 0.56 0.57 0.52 0.45 0.47 0.44 0.51 0.55 0.54 0.70 0.86 0.88 0.91 0.92 0.89 0.94 0.99 1.04 1.12 1.22 1.26 1.36 1.50 1.62 1.62 1.68 1.70 1.58 1.46 1.21 1.00 0.96 0.95 1.04 1.07 1.04 0.99 0.95
0.87 0.72 0.64 0.57 0.54 0.53 0.47 0.40 0.32 0.31 0.34 0.38 0.51 0.50 0.54 0.71 0.83 0.83 0.79 0.79 0.83 0.86 0.90 0.96 1.01 1.11 1.21 1.25 1.35 1.46 1.53 1.57 1.61 1.53 1.44 1.30 1.16 1.08 1.08 1.05 1.14 1.28 1.24
1.05 0.84 0.72 0.67 0.56 0.47 0.37 0.34 0.29 0.32 0.36 0.35 0.35 0.37 0.43 0.53 0.65 0.67 0.65 0.65 0.66 0.69 0.81 0.89 0.95 1.00 1.08 1.15 1.19 1.31 1.44 1.52 1.52 1.48 1.43 1.37 1.30 1.27 1.24 1.18 1.23 1.37 1.44
0.73 0.54 0.46 0.44 0.39 0.31 0.25 0.23 0.22 0.22 0.22 0.24 0.21 0.22 0.27 0.35 0.39 0.41 0.48 0.53 0.60 0.66 0.76 0.80 0.84 0.81 0.85 0.92 0.92 1.09 1.25 1.41 1.47 1.50 1.43 1.33 1.27 1.27 1.24 1.24 1.29 1.44 1.49
0.36 0.29 0.25 0.21 0.18 0.16 0.16 0.15 0.11 0.09 0.09 0.14 0.14 0.16 0.20 0.22 0.27 0.25 0.30 0.43 0.54 0.61 0.68 0.72 0.79 0.82 0.78 0.74 0.73 0.81 0.93 1.05 1.21 1.33 1.38 1.31 1.23 1.21 1.28 1.38 1.39 1.44 1.53
0.08 0.07 0.07 0.07 0.07 0.06 0.06 0.07 0.07 0.07 0.06 0.09 0.09 0.13 0.17 0.14 0.16 0.15 0.26 0.46 0.53 0.54 0.53 0.66 0.78 0.84 0.87 0.89 0.77 0.76 0.77 0.81 0.89 1.05 1.19 1.20 1.19 1.19 1.23 1.31 1.39 1.41 1.32
0.01 0.02 0.02 0.02 0.04 0.05 0.06 0.05 0.04 0.03 0.03 0.07 0.08 0.15 0.14 0.09 0.11 0.14 0.21 0.38 0.47 0.45 0.47 0.57 0.72 0.84 0.87 0.89 0.84 0.90 0.88 0.78 0.75 0.80 0.99 1.08 1.08 1.20 1.30 1.40 1.51 1.49 1.44
0.00 0.01 0.00 0.01 0.01 0.02 0.02 0.02 0.01 0.01 0.02 0.06 0.09 0.11 0.08 0.05 0.07 0.11 0.20 0.37 0.46 0.47 0.44 0.52 0.67 0.76 0.86 0.87 0.84 0.94 0.95 0.78 0.70 0.78 0.81 0.88 0.97 1.10 1.28 1.41 1.48 1.47 1.47
0.00 0.01 0.00 0.00 0.01 0.01 0.02 0.01 0.01 0.01 0.02 0.03 0.06 0.07 0.06 0.07 0.06 0.07 0.15 0.26 0.35 0.44 0.44 0.49 0.69 0.74 0.77 0.74 0.76 0.96 1.05 0.92 0.69 0.67 0.73 0.84 0.92 1.05 1.28 1.42 1.62 1.59 1.40
0.00 0.00 0.01 0.01 0.01 0.02 0.03 0.03 0.02 0.02 0.02 0.02 0.03 0.04 0.04 0.04 0.06 0.07 0.13 0.15 0.20 0.26 0.32 0.37 0.40 0.52 0.55 0.59 0.70 0.81 0.91 0.82 0.74 0.82 0.91 0.94 1.01 1.06 1.15 1.27 1.48 1.61 1.51
0.01 0.01 0.01 0.01 0.01 0.03 0.06 0.04 0.03 0.02 0.02 0.03 0.04 0.04 0.05 0.05 0.05 0.06 0.09 0.11 0.13 0.18 0.22 0.27 0.31 0.40 0.44 0.50 0.57 0.62 0.66 0.72 0.77 0.90 0.93 0.85 0.89 0.95 0.96 1.05 1.21 1.33 1.21
0.00 0.01 0.01 0.01 0.02 0.03 0.03 0.04 0.03 0.03 0.03 0.03 0.04 0.05 0.06 0.07 0.06 0.06 0.07 0.08 0.10 0.12 0.15 0.22 0.26 0.34 0.34 0.39 0.47 0.49 0.57 0.79 0.90 0.84 0.82 0.79 0.77 0.81 0.79 0.90 1.09 1.24 1.18
0.00 0.00 0.01 0.01 0.03 0.03 0.02 0.02 0.03 0.03 0.03 0.04 0.05 0.05 0.07 0.10 0.06 0.05 0.07 0.10 0.12 0.15 0.17 0.20 0.24 0.31 0.34 0.37 0.43 0.50 0.62 0.78 0.90 0.76 0.65 0.67 0.68 0.75 0.82 0.80 0.89 0.98 1.12
0.00 0.00 0.01 0.01 0.03 0.04 0.03 0.03 0.03 0.03 0.03 0.04 0.04 0.06 0.05 0.06 0.05 0.07 0.09 0.11 0.15 0.16 0.20 0.29 0.39 0.50 0.50 0.50 0.56 0.59 0.63 0.63 0.67 0.62 0.62 0.66 0.70 0.71 0.76 0.78 0.78 0.78 0.80
0.00 0.00 0.01 0.01 0.02 0.03 0.05 0.05 0.04 0.03 0.04 0.03 0.03 0.04 0.04 0.04 0.06 0.10 0.13 0.13 0.15 0.19 0.29 0.34 0.46 0.60 0.64 0.67 0.67 0.67 0.69 0.65 0.65 0.61 0.62 0.63 0.63 0.62 0.64 0.71 0.77 0.81 0.75
0.01 0.01 0.01 0.01 0.02 0.03 0.04 0.06 0.06 0.05 0.04 0.03 0.03 0.03 0.04 0.05 0.06 0.09 0.12 0.15 0.19 0.28 0.30 0.35 0.53 0.59 0.57 0.59 0.65 0.67 0.62 0.52 0.52 0.52 0.49 0.49 0.48 0.46 0.49 0.55 0.62 0.68 0.68
0.01 0.01 0.02 0.02 0.02 0.03 0.04 0.04 0.05 0.07 0.08 0.07 0.05 0.04 0.05 0.05 0.07 0.09 0.11 0.16 0.22 0.28 0.32 0.46 0.60 0.63 0.58 0.52 0.49 0.45 0.40 0.37 0.37 0.39 0.40 0.40 0.42 0.44 0.45 0.46 0.48 0.50 0.54
0.01 0.02 0.02 0.03 0.03 0.03 0.04 0.04 0.05 0.05 0.06 0.08 0.09 0.08 0.08 0.08 0.08 0.08 0.11 0.15 0.19 0.21 0.28 0.38 0.47 0.54 0.49 0.37 0.31 0.29 0.28 0.30 0.31 0.33 0.37 0.40 0.40 0.42 0.44 0.47 0.47 0.48 0.50
0.02 0.02 0.03 0.04 0.04 0.04 0.05 0.05 0.05 0.06 0.06 0.06 0.07 0.09 0.12 0.11 0.10 0.10 0.11 0.13 0.15 0.16 0.18 0.22 0.25 0.27 0.26 0.24 0.24 0.25 0.26 0.29 0.30 0.32 0.36 0.38 0.42 0.47 0.47 0.45 0.46 0.46 0.46
0.02 0.02 0.02 0.03 0.04 0.04 0.05 0.06 0.06 0.07 0.07 0.08 0.08 0.09 0.13 0.13 0.12 0.13 0.13 0.14 0.15 0.16 0.17 0.19 0.21 0.23 0.24 0.24 0.25 0.26 0.27 0.28 0.30 0.32 0.36 0.39 0.40 0.43 0.48 0.47 0.46 0.46 0.44
0.01 0.02 0.03 0.03 0.04 0.05 0.06 0.07 0.07 0.08 0.08 0.09 0.09 0.10 0.12 0.13 0.13 0.13 0.14 0.15 0.17 0.18 0.20 0.22 0.23 0.26 0.28 0.28 0.28 0.27 0.27 0.27 0.28 0.33 0.36 0.40 0.42 0.42 0.43 0.45 0.45 0.44 0.41
0.01 0.02 0.03 0.04 0.05 0.07 0.09 0.09 0.08 0.09 0.10 0.10 0.11 0.11 0.12 0.12 0.13 0.14 0.14 0.15 0.18 0.19 0.21 0.22 0.24 0.25 0.27 0.29 0.30 0.30 0.30 0.28 0.29 0.34 0.39 0.42 0.45 0.46 0.45 0.43 0.43 0.43 0.41
0.01 0.02 0.03 0.04 0.06 0.08 0.09 0.10 0.10 0.10 0.10 0.12 0.12 0.12 0.13 0.14 0.14 0.15 0.15 0.15 0.16 0.19 0.20 0.21 0.21 0.22 0.24 0.27 0.29 0.30 0.30 0.29 0.31 0.34 0.39 0.44 0.45 0.45 0.47 0.49 0.47 0.45 0.42
0.02 0.02 0.03 0.04 0.06 0.08 0.10 0.11 0.11 0.11 0.11 0.11 0.13 0.14 0.15 0.15 0.15 0.15 0.15 0.16 0.16 0.19 0.22 0.22 0.21 0.22 0.22 0.23 0.25 0.28 0.34 0.35 0.33 0.33 0.35 0.41 0.45 0.45 0.44 0.46 0.49 0.51 0.48
0.03 0.03 0.03 0.04 0.06 0.08 0.10 0.11 0.12 0.13 0.13 0.12 0.13 0.14 0.15 0.17 0.18 0.18 0.17 0.18 0.19 0.20 0.22 0.24 0.23 0.22 0.23 0.24 0.25 0.29 0.33 0.32 0.31 0.33 0.34 0.38 0.42 0.44 0.44 0.45 0.45 0.48 0.50

GEFSGL_prec_meanprecacc_132.txt.gz
Total_Precipitation_Accumulation
1.22 1.18 1.06 0.86 0.75 0.76 0.77 0.73 0.68 0.71 0.66 0.68 0.66 0.70 0.81 0.81 0.80 0.89 0.95 0.98 1.07 1.17 1.20 1.22 1.39 1.54 1.66 1.71 1.72 1.72 1.74 1.66 1.44 1.25 0.99 0.81 0.88 0.88 0.89 0.80 0.85 0.91 0.80
0.93 0.84 0.72 0.57 0.51 0.56 0.57 0.52 0.45 0.47 0.44 0.51 0.55 0.54 0.70 0.86 0.88 0.91 0.92 0.89 0.95 0.99 1.04 1.12 1.22 1.26 1.36 1.50 1.62 1.62 1.69 1.71 1.58 1.47 1.21 1.00 0.96 0.96 1.05 1.08 1.05 1.00 0.96
0.87 0.72 0.64 0.57 0.54 0.53 0.47 0.40 0.32 0.31 0.34 0.38 0.51 0.50 0.54 0.71 0.83 0.83 0.79 0.79 0.83 0.86 0.90 0.96 1.01 1.11 1.21 1.25 1.35 1.46 1.54 1.58 1.62 1.54 1.44 1.31 1.16 1.08 1.09 1.06 1.15 1.29 1.25
1.05 0.84 0.72 0.67 0.56 0.47 0.37 0.34 0.29 0.32 0.36 0.35 0.35 0.37 0.43 0.53 0.65 0.67 0.65 0.65 0.66 0.69 0.81 0.89 0.95 1.00 1.08 1.15 1.19 1.31 1.44 1.52 1.53 1.48 1.44 1.37 1.31 1.28 1.25 1.19 1.24 1.37 1.45
0.73 0.54 0.46 0.44 0.39 0.31 0.25 0.23 0.22 0.22 0.22 0.24 0.21 0.22 0.27 0.35 0.39 0.41 0.48 0.53 0.60 0.66 0.76 0.80 0.84 0.81 0.85 0.92 0.92 1.09 1.25 1.41 1.47 1.50 1.43 1.33 1.27 1.27 1.25 1.26 1.30 1.45 1.52
0.36 0.29 0.25 0.21 0.18 0.16 0.16 0.15 0.11 0.09 0.09 0.14 0.14 0.16 0.20 0.22 0.27 0.25 0.30 0.43 0.54 0.61 0.68 0.72 0.79 0.82 0.78 0.74 0.73 0.81 0.94 1.05 1.21 1.34 1.38 1.31 1.23 1.21 1.29 1.39 1.40 1.46 1.57
0.08 0.07 0.07 0.07 0.07 0.06 0.06 0.07 0.07 0.07 0.06 0.09 0.09 0.13 0.17 0.14 0.16 0.15 0.26 0.46 0.53 0.54 0.53 0.66 0.78 0.84 0.87 0.89 0.77 0.76 0.77 0.81 0.89 1.05 1.20 1.21 1.19 1.20 1.24 1.32 1.40 1.42 1.35
0.01 0.02 0.02 0.02 0.04 0.05 0.06 0.05 0.04 0.03 0.03 0.07 0.08 0.15 0.14 0.09 0.11 0.14 0.21 0.38 0.47 0.45 0.47 0.57 0.72 0.84 0.87 0.89 0.84 0.90 0.88 0.78 0.75 0.80 0.99 1.08 1.09 1.20 1.31 1.41 1.53 1.51 1.46
0.00 0.01 0.00 0.01 0.01 0.02 0.02 0.02 0.01 0.01 0.02 0.06 0.09 0.11 0.08 0.05 0.07 0.11 0.20 0.37 0.46 0.47 0.44 0.52 0.67 0.76 0.86 0.87 0.84 0.94 0.95 0.78 0.70 0.78 0.81 0.88 0.98 1.10 1.28 1.42 1.50 1.50 1.49
0.00 0.01 0.00 0.00 0.01 0.01 0.02 0.01 0.01 0.01 0.02 0.03 0.06 0.07 0.06 0.07 0.06 0.07 0.15 0.26 0.35 0.44 0.44 0.49 0.69 0.74 0.77 0.74 0.76 0.96 1.05 0.93 0.69 0.67 0.73 0.84 0.92 1.06 1.29 1.43 1.64 1.63 1.43
0.00 0.00 0.01 0.01 0.01 0.02 0.03 0.03 0.02 0.02 0.02 0.02 0.03 0.04 0.04 0.04 0.06 0.07 0.13 0.15 0.20 0.26 0.32 0.37 0.40 0.52 0.55 0.59 0.70 0.81 0.91 0.82 0.74 0.82 0.91 0.94 1.01 1.07 1.16 1.28 1.50 1.65 1.56
0.01 0.01 0.01 0.01 0.01 0.03 0.06 0.04 0.03 0.02 0.02 0.03 0.04 0.04 0.05 0.05 0.05 0.06 0.09 0.11 0.13 0.18 0.22 0.27 0.31 0.40 0.44 0.50 0.57 0.62 0.66 0.72 0.77 0.90 0.93 0.85 0.90 0.96 0.97 1.06 1.23 1.36 1.25
0.00 0.01 0.01 0.01 0.02 0.03 0.03 0.04 0.03 0.03 0.03 0.03 0.04 0.05 0.06 0.07 0.06 0.06 0.07 0.08 0.10 0.12 0.15 0.22 0.26 0.34 0.34 0.40 0.48 0.49 0.58 0.79 0.91 0.86 0.83 0.79 0.78 0.82 0.81 0.92 1.11 1.26 1.22
0.00 0.00 0.01 0.01 0.03 0.03 0.02 0.02 0.03 0.03 0.03 0.04 0.05 0.05 0.07 0.10 0.06 0.05 0.07 0.10 0.12 0.15 0.17 0.20 0.24 0.31 0.34 0.37 0.44 0.51 0.62 0.78 0.92 0.79 0.66 0.67 0.68 0.77 0.84 0.82 0.91 1.01 1.15
0.00 0.00 0.01 0.01 0.03 0.04 0.03 0.03 0.03 0.03 0.03 0.04 0.04 0.06 0.05 0.06 0.05 0.07 0.09 0.11 0.15 0.16 0.20 0.29 0.39 0.50 0.50 0.51 0.57 0.61 0.64 0.65 0.70 0.65 0.63 0.68 0.71 0.73 0.79 0.81 0.82 0.83 0.85
0.00 0.00 0.01 0.01 0.02 0.03 0.05 0.05 0.04 0.03 0.04 0.03 0.03 0.04 0.04 0.04 0.06 0.10 0.13 0.13 0.15 0.19 0.29 0.34 0.46 0.60 0.64 0.67 0.68 0.69 0.70 0.65 0.66 0.62 0.63 0.65 0.65 0.65 0.68 0.75 0.82 0.87 0.81
0.01 0.01 0.01 0.01 0.02 0.03 0.04 0.06 0.06 0.05 0.04 0.03 0.03 0.03 0.04 0.05 0.06 0.09 0.12 0.15 0.19 0.28 0.30 0.35 0.53 0.59 0.57 0.59 0.65 0.69 0.63 0.53 0.54 0.54 0.50 0.51 0.51 0.50 0.53 0.59 0.67 0.74 0.75
0.01 0.01 0.02 0.02 0.02 0.03 0.04 0.04 0.05 0.07 0.08 0.07 0.05 0.04 0.05 0.05 0.07 0.09 0.11 0.16 0.22 0.28 0.32 0.46 0.60 0.63 0.58 0.52 0.49 0.46 0.41 0.38 0.39 0.40 0.41 0.42 0.45 0.46 0.47 0.49 0.52 0.55 0.60
0.01 0.02 0.02 0.03 0.03 0.03 0.04 0.04 0.05 0.05 0.06 0.08 0.09 0.08 0.08 0.08 0.08 0.08 0.11 0.15 0.19 0.21 0.28 0.38 0.47 0.54 0.49 0.37 0.31 0.30 0.29 0.30 0.32 0.35 0.38 0.42 0.43 0.45 0.47 0.49 0.50 0.52 0.55
0.02 0.02 0.03 0.04 0.04 0.04 0.05 0.05 0.05 0.06 0.06 0.06 0.07 0.09 0.12 0.11 0.10 0.10 0.11 0.13 0.15 0.16 0.18 0.22 0.25 0.27 0.26 0.24 0.25 0.26 0.27 0.29 0.31 0.33 0.37 0.40 0.45 0.49 0.49 0.48 0.50 0.50 0.51
0.02 0.02 0.02 0.03 0.04 0.04 0.05 0.06 0.06 0.07 0.07 0.08 0.08 0.09 0.13 0.13 0.12 0.13 0.13 0.14 0.15 0.16 0.17 0.19 0.21 0.23 0.24 0.24 0.25 0.26 0.27 0.29 0.31 0.33 0.37 0.41 0.44 0.46 0.50 0.50 0.49 0.50 0.49
0.01 0.02 0.03 0.03 0.04 0.05 0.06 0.07 0.07 0.08 0.08 0.09 0.09 0.10 0.12 0.13 0.13 0.13 0.14 0.15 0.17 0.18 0.20 0.22 0.24 0.26 0.28 0.29 0.28 0.28 0.28 0.28 0.29 0.34 0.37 0.42 0.45 0.45 0.46 0.47 0.48 0.48 0.46
0.01 0.02 0.03 0.04 0.05 0.07 0.09 0.09 0.08 0.09 0.10 0.10 0.11 0.11 0.12 0.12 0.13 0.14 0.14 0.15 0.18 0.20 0.21 0.23 0.24 0.26 0.28 0.29 0.30 0.31 0.31 0.29 0.31 0.35 0.42 0.45 0.48 0.49 0.49 0.47 0.46 0.47 0.46
0.01 0.02 0.03 0.04 0.06 0.08 0.09 0.10 0.10 0.10 0.10 0.12 0.12 0.12 0.13 0.14 0.14 0.15 0.15 0.15 0.17 0.20 0.21 0.21 0.21 0.23 0.25 0.27 0.30 0.31 0.31 0.31 0.32 0.36 0.41 0.47 0.48 0.48 0.51 0.53 0.51 0.50 0.49
0.02 0.02 0.03 0.04 0.06 0.08 0.10 0.11 0.11 0.11 0.11 0.11 0.13 0.14 0.15 0.15 0.16 0.15 0.15 0.16 0.17 0.19 0.22 0.22 0.21 0.22 0.23 0.24 0.26 0.29 0.35 0.35 0.33 0.34 0.37 0.44 0.47 0.48 0.48 0.50 0.54 0.56 0.55
0.03 0.03 0.03 0.04 0.06 0.08 0.10 0.11 0.12 0.13 0.13 0.12 0.13 0.14 0.15 0.17 0.18 0.18 0.17 0.18 0.20 0.21 0.23 0.24 0.23 0.23 0.23 0.24 0.26 0.29 0.34 0.33 0.32 0.33 0.36 0.40 0.45 0.48 0.48 0.49 0.50 0.54 0.58